Regional Weather Roundup
Issued by NWS State College, PA

Home | Current Version | Previous Version | Graphics & Text | Print | Product List | Glossary Off
Versions: 1 2 3 4 5 6 7 8 9 10 11 12 13 14 15 16 17 18 19 20 21 22 23 24 25 26 27 28 29 30 31 32 33 34 35 36 37 38 39 40 41 42 43 44 45 46 47 48 49 50

000
ASUS41 KCTP 260010
RWRCTP

REGIONAL WEATHER ROUNDUP
NATIONAL WEATHER SERVICE STATE COLLEGE PA
800 PM EDT FRI JUL 25 2014

Note: "fair" indicates few or no clouds below 12,000 feet with no
significant weather and/or obstructions to visibility.

* = STATION THAT DOES NOT REPORT PRECIPITATION /E.G. RAIN...SNOW...ETC/
    THUNDER OR FOG.

PAZ002>004-007>009-013>016-020>023-029>032-260100-
WESTERN PENNSYLVANIA

CITY           SKY/WX    TMP DP  RH WIND       PRES   REMARKS
ERIE           PTCLDY    70  53  54 CALM      30.00F
MEADVILLE      MOCLDY    68  53  58 CALM      30.02S
FRANKLIN*      MOCLDY    68  52  56 CALM      30.04R
NEW CASTLE       N/A     69  61  76 CALM      30.02S
BEAVER COUNTY  CLEAR     73  52  46 CALM      30.02S
BUTLER*        PTCLDY    70  55  60 CALM      30.03F
PITTSBURGH INT MOCLDY    75  53  46 W6        30.01F
PITTSBURGH     PTCLDY    74  51  44 S6        30.01F
INDIANA*       CLEAR     73  50  43 CALM      30.06F
LATROBE        MOCLDY    73  54  49 CALM      30.03F
WASHINGTON CO* CLEAR     72  55  56 CALM      30.02F
$$

PAZ004>006-010>012-017>019-024>028-033>037-041-042-045-046-049>053-260100-
CENTRAL PENNSYLVANIA

CITY           SKY/WX    TMP DP  RH WIND       PRES   REMARKS
BRADFORD       MOCLDY    69  45  41 VRB3      30.04S
DUBOIS         PTCLDY    69  52  54 CALM      30.03S
CLEARFIELD     PTCLDY    70  49  47 W3        30.03S
JOHNSTOWN      PTCLDY    67  47  48 W3        30.06F
ALTOONA        CLEAR     74  52  46 CALM      30.04S
STATE COLLEGE  CLEAR     72  54  53 CALM      30.02S
WILLIAMSPORT   PTCLDY    73  56  54 S3        29.98S
SELINSGROVE    CLEAR     71  55  56 SW3       30.00F
FT INDIANTOWN  CLEAR     71  55  56 NW1       30.02R
CAPITAL CITY   CLEAR     74  54  49 CALM      30.01R
HARRISBURG     PTCLDY    74  58  57 CALM      30.00R
YORK           CLEAR     73  56  54 CALM      30.01S
$$

PAZ038>040-043-044-047-048-054-055-060>062-067>071-260100-
EASTERN PENNSYLVANIA

CITY           SKY/WX    TMP DP  RH WIND       PRES   REMARKS
SCRANTON       CLEAR     76  51  41 W5        30.01R
MOUNT POCONO   CLEAR     69  54  58 SW5       30.05R
ALLENTOWN      CLEAR     75  53  46 W8        30.00R
QUAKERTOWN*    CLEAR     75  57  53 W3        30.02R
READING        CLEAR     76  53  44 SW6       30.00R
LANCASTER      CLEAR     74  50  42 SW3       30.01R
COATESVILLE    CLEAR     73  48  40 SW3       30.04R
POTTSTOWN      CLEAR     76  55  48 VRB3      30.03R
BLUE BELL      CLEAR     79  55  44 W3        29.99R
DOYLESTOWN     CLEAR     75  57  53 CALM      29.99R
WILLOW GROVE   NOT AVBL
NORTH PHILA    CLOUDY    79  62  56 SE9       30.00R
PHILADELPHIA   PTCLDY    80  56  43 SW10      30.00R
$$


USA.gov is the U.S. government's official web portal to all federal, state and local government web resources and services.